Weather History for Rawlins, WY

Change the Weather History Date:

Sunday, August 18, 2013

  Actual Average Record
Temperature  
Mean Temperature 73 °F 65 °F  
Max Temperature 89 °F 81 °F 92 °F (1986)
Min Temperature 57 °F 49 °F 34 °F (1960)
Degree Days  
Heating Degree Days 0 2  
Month to date heating degree days 7 22  
Since 1 June heating degree days 108 247  
Since 1 July heating degree days 7 57  
Cooling Degree Days 8 2  
Month to date cooling degree days 67 48  
Year to date cooling degree days 267 165  
Since 1 June cooling degree days 266 165  
Growing Degree Days 24 (Base 50)    
Moisture  
Dew Point 34 °F    
Average Humidity 32    
Maximum Humidity 52    
Minimum Humidity 12    
Precipitation  
Precipitation 0.00 in 0.03 in 1.27 in (1977)
Month to date precipitation 0.21 0.46  
Year to date precipitation 3.43 6.25  
Sea Level Pressure  
Sea Level Pressure 29.91 in    
Wind  
Wind Speed 8 mph (West)    
Max Wind Speed 24 mph    
Max Gust Speed 31 mph    
Visibility 10 miles    
Events      
T = Trace of Precipitation, MM = Missing Value Source: NWS Daily Summary

Daily Weather History Graph

Daily Weather History Graph

Search for Another Location

Airport:

Trip Planner

Search our weather history database for the weather conditions in past years. The results will help you decide how hot, cold, wet, or windy it might be!

Date:

Astronomy

Aug. 18, 2013 Rise Set
Actual Time 6:20 AM MDT 8:03 PM MDT
Civil Twilight 5:50 AM MDT 8:33 PM MDT
Nautical Twilight 5:14 AM MDT 9:09 PM MDT
Astronomical Twilight 4:36 AM MDT 9:47 PM MDT
Moon 6:13 PM MDT (8/18) 3:31 AM MDT (8/18)
Length of Visible Light 14h 42m
Length of Day
13h 43m
Waxing Gibbous, 92% of the Moon is Illuminated
Aug 18
Waxing Gibbous
Aug 20
Full
Aug 28
Last Quarter
Sep 5
New
Sep 12
First Quarter

Hourly Weather History & Observations

Time (MDT) Temp. Dew Point Humidity Pressure Visibility Wind Dir Wind Speed Gust Speed Precip Events Conditions
12:53 AM 66.9 °F 34.0 °F 30% 29.87 in 10.0 mi WSW 9.2 mph - N/A   Clear
1:53 AM 68.0 °F 34.0 °F 28% 29.87 in 10.0 mi Calm Calm - N/A   Clear
2:53 AM 62.1 °F 34.0 °F 35% 29.89 in 10.0 mi Calm Calm - N/A   Clear
3:53 AM 63.0 °F 34.0 °F 34% 29.89 in 10.0 mi Variable 3.5 mph - N/A   Clear
4:53 AM 64.9 °F 35.1 °F 33% 29.90 in 10.0 mi Variable 6.9 mph - N/A   Clear
5:53 AM 59.0 °F 35.1 °F 41% 29.92 in 10.0 mi SSW 4.6 mph - N/A   Clear
6:53 AM 64.0 °F 35.1 °F 34% 29.94 in 10.0 mi SW 11.5 mph - N/A   Clear
7:53 AM 61.0 °F 35.1 °F 38% 29.99 in 10.0 mi Calm Calm - N/A   Clear
8:53 AM 72.0 °F 36.0 °F 27% 29.99 in 10.0 mi SSW 9.2 mph - N/A   Partly Cloudy
9:53 AM 73.0 °F 37.0 °F 27% 30.01 in 10.0 mi West 6.9 mph - N/A   Clear
10:53 AM 79.0 °F 37.0 °F 22% 29.97 in 10.0 mi SW 17.3 mph 23.0 mph N/A   Mostly Cloudy
11:53 AM 84.0 °F 36.0 °F 18% 29.94 in 10.0 mi WSW 19.6 mph 26.5 mph N/A   Clear
12:53 PM 86.0 °F 34.0 °F 16% 29.93 in 10.0 mi West 20.7 mph 28.8 mph N/A   Clear
1:53 PM 88.0 °F 32.0 °F 14% 29.90 in 10.0 mi WSW 15.0 mph 24.2 mph N/A   Partly Cloudy
2:53 PM 87.1 °F 30.9 °F 13% 29.90 in 10.0 mi West 12.7 mph 21.9 mph N/A   Clear
3:53 PM 89.1 °F 30.0 °F 12% 29.87 in 10.0 mi West 12.7 mph 18.4 mph N/A   Clear
4:53 PM 87.1 °F 28.0 °F 12% 29.85 in 10.0 mi West 5.8 mph - N/A   Partly Cloudy
5:53 PM 86.0 °F 30.0 °F 13% 29.87 in 10.0 mi North 8.1 mph - N/A   Scattered Clouds
6:53 PM 84.9 °F 28.9 °F 13% 29.85 in 10.0 mi North 6.9 mph - N/A   Clear
7:53 PM 78.1 °F 30.9 °F 18% 29.88 in 10.0 mi North 6.9 mph - N/A   Clear
8:53 PM 68.0 °F 30.9 °F 25% 29.89 in 10.0 mi NNW 8.1 mph - N/A   Clear
9:53 PM 68.0 °F 43.0 °F 40% 29.92 in 10.0 mi East 11.5 mph - N/A   Clear
10:53 PM 63.0 °F 44.1 °F 50% 29.93 in 10.0 mi Calm Calm - N/A   Clear
11:53 PM 61.0 °F 42.1 °F 50% 29.93 in 10.0 mi ESE 4.6 mph - N/A   Clear